This demonstration page uses our WeatherBlox Daily Observations layout. Learn more.

36.19886, -115.1175

Hourly Observations for November 24, 2020

Temp ( °F °C ) Dew Point ( °F °C ) Humidity (%) Winds ( mph kmh ) Pressure ( in mb ) Visibility ( mi km ) Precip ( " mm )
12:53 am 00:53 Clear 56 13.3 21 -6.1 26 26 NW 13 20 29.93 1014 10 16.0934 0 0
1:53 am 01:53 Clear 56 13.3 20 -6.7 24 24 WNW 20 31 29.95 1014 10 16.0934 0 0
2:53 am 02:53 Clear 54 12.2 20 -6.7 26 26 NNW 16 26 29.99 1016 10 16.0934 0 0
3:53 am 03:53 Clear 53 11.7 19 -7.2 26 26 NW 14 22 30.01 1016 10 16.0934 0 0
4:53 am 04:53 Clear 50 10 19 -7.2 29 29 NNW 12 19 30.04 1017 10 16.0934 0 0
5:53 am 05:53 Clear 50 10 20 -6.7 30 30 NNW 12 19 30.07 1018 10 16.0934 0 0
6:53 am 06:53 Sunny 49 9.4 20 -6.7 32 32 NNW 10 17 30.09 1019 10 16.0934 0 0
7:53 am 07:53 Sunny 53 11.7 20 -6.7 27 27 NNW 13 20 30.11 1020 10 16.0934 0 0
8:53 am 08:53 Sunny 56 13.3 20 -6.7 24 24 NNW 17 28 30.13 1020 10 16.0934 0 0
9:53 am 09:53 Sunny 59 15 20 -6.7 22 22 NNW 15 24 30.13 1020 10 16.0934 0 0
10:53 am 10:53 Sunny 60 15.6 19 -7.2 20 20 NW 13 20 30.13 1020 10 16.0934 0 0
11:53 am 11:53 Sunny 60 15.6 18 -7.8 19 19 W 9 15 30.11 1020 10 16.0934 0 0
12:53 pm 12:53 Sunny 63 17.2 18 -7.8 17 17 N 8 13 30.1 1019 10 16.0934 0 0
1:53 pm 13:53 Sunny 62 16.7 17 -8.3 17 17 Calm 30.09 1019 10 16.0934 0 0
2:53 pm 14:53 Sunny 64 17.8 17 -8.3 16 16 NW 6 9 30.08 1019 10 16.0934 0 0
3:53 pm 15:53 Sunny 62 16.7 17 -8.3 17 17 Calm 30.08 1019 10 16.0934 0 0
4:53 pm 16:53 Clear 60 15.6 16 -8.9 18 18 Calm 30.1 1019 10 16.0934 0 0
5:53 pm 17:53 Clear 57 13.9 17 -8.3 21 21 Calm 30.11 1020 10 16.0934 0 0
6:53 pm 18:53 Clear 55 12.8 17 -8.3 22 22 NW 6 9 30.12 1020 10 16.0934 0 0
7:53 pm 19:53 Clear 52 11.1 18 -7.8 26 26 WNW 8 13 30.13 1020 10 16.0934 0 0
8:53 pm 20:53 Clear 50 10 17 -8.3 27 27 NNW 6 9 30.13 1020 10 16.0934 0 0
9:53 pm 21:53 Clear 47 8.3 19 -7.2 33 33 WNW 5 7 30.13 1020 10 16.0934 0 0
10:53 pm 22:53 Clear 46 7.8 19 -7.2 34 34 WNW 5 7 30.14 1021 10 16.0934 0 0
11:53 pm 23:53 Clear 44 6.7 18 -7.8 35 35 Calm 30.13 1020 10 16.0934 0 0

Powered by AerisWeather